This demonstration page uses our WeatherBlox Daily Observations layout. Learn more.

Left ArrowRight Arrow

39.92423, -83.80882

Hourly Observations for April 2, 2022

Temp ( °F °C ) Dew Point ( °F °C ) Humidity (%) Winds ( mph kmh ) Pressure ( in mb ) Visibility ( mi km ) Precip ( " mm )
12:56 am 00:56 Clear 29 -1.7 27 -2.8 92 92 Calm 30.21 1023 10 16 0.00 0.00
1:56 am 01:56 Clear 26 -3.3 26 -3.3 100 100 Calm 30.20 1023 10 16 0.00 0.00
2:56 am 02:56 Clear 24 -4.4 24 -4.4 100 100 ESE 3 6 30.19 1023 10 16 0.00 0.00
3:56 am 03:56 Clear 25 -3.9 25 -3.9 100 100 SSE 3 6 30.19 1023 10 16 0.00 0.00
4:56 am 04:56 Clear 25 -4 N/A N/A ESE 5 7 30.18 1022 10 16 0.00 0.00
5:56 am 05:56 Clear 23 -5 N/A N/A E 3 6 30.19 1022 10 16 0.00 0.00
6:56 am 06:56 Clear 21 -6 N/A N/A E 7 11 30.17 1022 10 16 0.00 0.00
7:56 am 07:56 Sunny 26 -3.3 26 -3.3 100 100 SE 5 7 30.17 1022 10 16 0.00 0.00
8:56 am 08:56 Sunny 34 1.1 30 -1.1 85 85 SSE 7 11 30.18 1022 10 16 0.00 0.00
9:56 am 09:56 Sunny 38 3.3 29 -1.7 70 70 S 9 15 30.16 1021 10 16 0.00 0.00
10:56 am 10:56 Sunny 40 4.4 27 -2.8 60 60 SSE 7 11 30.14 1021 10 16 0.00 0.00
11:56 am 11:56 Sunny 43 6.1 28 -2.2 56 56 SSW 9 15 30.12 1020 10 16 0.00 0.00
12:56 pm 12:56 Sunny 44 6.7 28 -2.2 53 53 SSE 12 19 30.08 1019 10 16 0.00 0.00
1:56 pm 13:56 Sunny 45 7.2 28 -2.2 52 52 SSE 8 13 30.04 1017 10 16 0.00 0.00
2:56 pm 14:56 Partly Cloudy 45 7.2 28 -2.2 52 52 SSW 9 15 30.00 1016 10 16 0.00 0.00
3:56 pm 15:56 Sunny 47 8.3 29 -1.7 50 50 SW 12 19 29.96 1015 10 16 0.00 0.00
4:56 pm 16:56 Cloudy 48 8.9 30 -1.1 50 50 S 9 15 29.94 1014 10 16 0.00 0.00
5:56 pm 17:56 Cloudy 47 8.3 30 -1.1 52 52 S 8 13 29.93 1014 10 16 0.00 0.00
6:56 pm 18:56 Cloudy 47 8.3 30 -1.1 52 52 S 9 15 29.91 1013 10 16 0.00 0.00
7:56 pm 19:56 Cloudy 46 7.8 31 -0.6 56 56 SSW 6 9 29.90 1013 10 16 0.00 0.00
8:56 pm 20:56 Mostly Cloudy 45 7.2 32 0 61 61 SSW 8 13 29.89 1012 10 16 0.00 0.00
9:56 pm 21:56 Partly Cloudy 44 6.7 32 0 63 63 SSW 10 17 29.87 1012 10 16 0.00 0.00
10:56 pm 22:56 Cloudy with Light Rain 43 6.1 36 2.2 76 76 SW 8 13 29.86 1011 10 16 0.00 0.00
11:56 pm 23:56 Cloudy 45 7.2 38 3.3 77 77 W 24 39 29.87 1011 10 16 0.00 0.00

Powered by AerisWeather